Location: B?jaj?g
(11.7167°N, 92.6667°E)
Time: 04:46:51
(UTC+00:00)

Meteor 1-27 Rocket - Pass Details

Date: 18 September 2020
Orbit: 830 x 910 km, 81.3° (Epoch: 20 October)

Event Time Altitude Azimuth Distance (km) Brightness Sun altitude
Rises 22:22:04 0° 198° (SSW) 3,497 6.7 -19.5°
Reaches altitude 10° 22:24:35 10° 204° (SSW) 2,566 5.9 -18.9°
Maximum altitude 22:30:12 47° 276° (W) 1,179 4.0 -17.5°
Drops below altitude 10° 22:35:52 10° 349° (N) 2,588 6.2 -16.2°
Sets 22:38:26 0° 355° (N) 3,529 6.9 -15.5°
